TimeMST,TemperatureF,Dew PointF,Humidity,Sea Level PressureIn,VisibilityMPH,Wind Direction,Wind SpeedMPH,Gust SpeedMPH,PrecipitationIn,Events,Conditions,WindDirDegrees,DateUTC
12:15 AM,19.4,14.0,80,30.19,10.0,Calm,Calm,-,N/A,,Clear,0,2013-02-04 07:15:00
12:55 AM,10.4,8.6,92,30.19,10.0,East,3.5,-,N/A,,Clear,100,2013-02-04 07:55:00
1:15 AM,10.4,6.8,85,30.19,10.0,East,3.5,-,N/A,,Clear,90,2013-02-04 08:15:00
1:35 AM,8.6,6.8,92,30.19,10.0,Calm,Calm,-,N/A,,Clear,0,2013-02-04 08:35:00
1:55 AM,10.4,6.8,85,30.19,10.0,Calm,Calm,-,N/A,,Clear,0,2013-02-04 08:55:00
2:15 AM,8.6,3.2,79,30.19,10.0,Calm,Calm,-,N/A,,Clear,0,2013-02-04 09:15:00
4:15 AM,5.0,1.4,85,30.20,10.0,Calm,Calm,-,N/A,,Clear,0,2013-02-04 11:15:00
4:35 AM,10.4,6.8,85,30.20,10.0,Calm,Calm,-,N/A,,Clear,0,2013-02-04 11:35:00
4:55 AM,6.8,5.0,92,30.20,10.0,Calm,Calm,-,N/A,,Clear,0,2013-02-04 11:55:00
5:35 AM,3.2,1.4,92,30.20,10.0,Calm,Calm,-,N/A,,Clear,0,2013-02-04 12:35:00
5:55 AM,5.0,3.2,92,30.20,10.0,Calm,Calm,-,N/A,,Clear,0,2013-02-04 12:55:00
6:15 AM,5.0,3.2,92,30.20,10.0,Calm,Calm,-,N/A,,Clear,0,2013-02-04 13:15:00
6:35 AM,5.0,3.2,92,30.20,7.0,Calm,Calm,-,N/A,,Clear,0,2013-02-04 13:35:00
6:55 AM,5.0,3.2,92,30.21,7.0,Calm,Calm,-,N/A,,Clear,0,2013-02-04 13:55:00
7:15 AM,3.2,1.4,92,30.22,10.0,Calm,Calm,-,N/A,,Clear,0,2013-02-04 14:15:00
7:35 AM,5.0,3.2,92,30.22,10.0,Calm,Calm,-,N/A,,Clear,0,2013-02-04 14:35:00
7:55 AM,8.6,5.0,85,30.22,5.0,Calm,Calm,-,N/A,,Clear,0,2013-02-04 14:55:00
8:15 AM,8.6,5.0,85,30.22,5.0,Calm,Calm,-,N/A,,Clear,0,2013-02-04 15:15:00
8:35 AM,8.6,5.0,85,30.23,5.0,Calm,Calm,-,N/A,,Clear,0,2013-02-04 15:35:00
8:55 AM,12.2,10.4,92,30.23,10.0,Calm,Calm,-,N/A,,Clear,0,2013-02-04 15:55:00
9:15 AM,12.2,10.4,92,30.24,7.0,Calm,Calm,-,N/A,,Clear,0,2013-02-04 16:15:00
9:35 AM,12.2,10.4,92,30.24,4.0,SSW,3.5,-,N/A,,Clear,200,2013-02-04 16:35:00
9:55 AM,17.6,14.0,86,30.23,7.0,Calm,Calm,-,N/A,,Clear,0,2013-02-04 16:55:00
10:15 AM,19.4,12.2,74,30.23,7.0,Calm,Calm,-,N/A,,Clear,0,2013-02-04 17:15:00
10:35 AM,19.4,12.2,74,30.23,10.0,Calm,Calm,-,N/A,,Clear,0,2013-02-04 17:35:00
10:55 AM,23.0,14.0,68,30.23,10.0,Calm,Calm,-,N/A,,Clear,0,2013-02-04 17:55:00
11:35 AM,26.6,14.0,59,30.20,10.0,Calm,Calm,-,N/A,,Clear,0,2013-02-04 18:35:00
11:55 AM,26.6,15.8,64,30.20,10.0,Calm,Calm,-,N/A,,Clear,0,2013-02-04 18:55:00
12:15 PM,30.2,17.6,60,30.19,10.0,Calm,Calm,-,N/A,,Scattered Clouds,0,2013-02-04 19:15:00
12:35 PM,32.0,17.6,55,30.18,10.0,East,5.8,-,N/A,,Overcast,90,2013-02-04 19:35:00
12:55 PM,32.0,17.6,55,30.17,10.0,North,5.8,-,N/A,,Mostly Cloudy,360,2013-02-04 19:55:00
1:15 PM,32.0,19.4,60,30.17,10.0,WNW,4.6,-,N/A,,Clear,290,2013-02-04 20:15:00
1:35 PM,33.8,19.4,56,30.16,10.0,West,3.5,-,N/A,,Mostly Cloudy,280,2013-02-04 20:35:00
1:55 PM,33.8,19.4,56,30.15,10.0,SSW,4.6,-,N/A,,Scattered Clouds,210,2013-02-04 20:55:00
2:15 PM,33.8,19.4,56,30.15,10.0,Calm,Calm,-,N/A,,Scattered Clouds,0,2013-02-04 21:15:00
2:35 PM,35.6,21.2,56,30.15,10.0,ESE,3.5,-,N/A,,Mostly Cloudy,110,2013-02-04 21:35:00
2:55 PM,37.4,19.4,48,30.14,10.0,Calm,Calm,-,N/A,,Overcast,0,2013-02-04 21:55:00
3:15 PM,37.4,19.4,48,30.14,10.0,ESE,4.6,-,N/A,,Mostly Cloudy,110,2013-02-04 22:15:00
3:35 PM,37.4,21.2,52,30.14,10.0,ESE,3.5,-,N/A,,Scattered Clouds,110,2013-02-04 22:35:00
3:55 PM,37.4,19.4,48,30.14,10.0,Calm,Calm,-,N/A,,Scattered Clouds,0,2013-02-04 22:55:00
4:15 PM,39.2,19.4,45,30.14,10.0,Calm,Calm,-,N/A,,Mostly Cloudy,0,2013-02-04 23:15:00
4:35 PM,37.4,19.4,48,30.14,10.0,Calm,Calm,-,N/A,,Overcast,0,2013-02-04 23:35:00
4:55 PM,37.4,19.4,48,30.14,10.0,Calm,Calm,-,N/A,,Mostly Cloudy,0,2013-02-04 23:55:00
5:15 PM,35.6,21.2,56,30.13,10.0,Calm,Calm,-,N/A,,Scattered Clouds,0,2013-02-05 00:15:00
5:35 PM,32.0,21.2,64,30.12,10.0,East,3.5,-,N/A,,Clear,80,2013-02-05 00:35:00
5:55 PM,32.0,19.4,60,30.13,10.0,Calm,Calm,-,N/A,,Clear,0,2013-02-05 00:55:00
6:15 PM,28.4,19.4,69,30.13,10.0,Calm,Calm,-,N/A,,Clear,0,2013-02-05 01:15:00
6:35 PM,21.2,15.8,80,30.13,10.0,Calm,Calm,-,N/A,,Clear,0,2013-02-05 01:35:00
6:55 PM,24.8,17.6,74,30.14,10.0,East,5.8,-,N/A,,Scattered Clouds,90,2013-02-05 01:55:00
7:15 PM,21.2,17.6,86,30.14,10.0,Calm,Calm,-,N/A,,Mostly Cloudy,0,2013-02-05 02:15:00
7:35 PM,23.0,17.6,80,30.14,10.0,Calm,Calm,-,N/A,,Scattered Clouds,0,2013-02-05 02:35:00
8:15 PM,21.2,15.8,80,30.14,10.0,Calm,Calm,-,N/A,,Clear,0,2013-02-05 03:15:00
8:55 PM,19.4,14.0,80,30.16,10.0,Calm,Calm,-,N/A,,Clear,0,2013-02-05 03:55:00
9:15 PM,17.6,14.0,86,30.16,10.0,Calm,Calm,-,N/A,,Clear,0,2013-02-05 04:15:00
9:35 PM,17.6,14.0,86,30.17,10.0,Calm,Calm,-,N/A,,Clear,0,2013-02-05 04:35:00
9:55 PM,19.4,14.0,80,30.17,10.0,Calm,Calm,-,N/A,,Clear,0,2013-02-05 04:55:00
10:15 PM,19.4,14.0,80,30.17,10.0,Calm,Calm,-,N/A,,Clear,0,2013-02-05 05:15:00
10:35 PM,15.8,12.2,86,30.17,10.0,Calm,Calm,-,N/A,,Clear,0,2013-02-05 05:35:00
10:55 PM,17.6,14.0,86,30.17,10.0,SSW,3.5,-,N/A,,Clear,200,2013-02-05 05:55:00
11:15 PM,23.0,17.6,80,30.17,10.0,Calm,Calm,-,N/A,,Clear,0,2013-02-05 06:15:00
11:35 PM,17.6,12.2,79,30.17,10.0,Calm,Calm,-,N/A,,Clear,0,2013-02-05 06:35:00
11:55 PM,17.6,12.2,79,30.18,10.0,Calm,Calm,-,N/A,,Clear,0,2013-02-05 06:55:00